Location: Cheching
(60.0667°N, 164.2167°W)
Time: 20:50:56
(UTC+00:00)

LilacSat-2 - Pass Details

Date: 23 January 2021
Orbit: 512 x 534 km, 97.5° (Epoch: 07 March)

Event Time Altitude Azimuth Distance (km) Brightness Sun altitude
Rises 15:26:50 0° 27° (NNE) 2,690 ? -29.3°
Reaches altitude 10° 15:30:06 10° 57° (ENE) 1,797 ? -28.9°
Maximum altitude 15:31:49 13° 84° (E) 1,635 ? -28.7°
Drops below altitude 10° 15:33:33 10° 110° (ESE) 1,794 ? -28.5°
Sets 15:36:48 0° 140° (SE) 2,680 ? -28.1°
